Location: Tucson
(32.2220°N, 110.9260°W)
Time: 13:32:12
(UTC-07:00)

ISS - Visible Passes

Search period start: 23 November 2017 00:00
Search period end: 03 December 2017 00:00
Orbit: 402 x 407 km, 51.6° (Epoch: 24 November)

Date Brightness Start Highest point End Pass type
(mag) Time Alt. Az. Time Alt. Az. Time Alt. Az.
23 Nov -1.9 19:03:29 10° SSW 19:05:01 23° S 19:05:01 23° S visible
24 Nov -2.0 18:12:07 10° S 18:14:23 18° SE 18:15:22 16° ESE visible
24 Nov -0.4 19:47:44 10° WSW 19:48:03 12° W 19:48:03 12° W visible
25 Nov -3.6 18:55:04 10° SW 18:58:17 65° NW 18:58:18 65° NW visible
26 Nov -3.5 18:02:49 10° SSW 18:06:00 52° SE 18:08:27 15° ENE visible
26 Nov -0.5 19:40:52 10° WNW 19:41:08 11° WNW 19:41:08 11° WNW visible
27 Nov -2.0 18:47:25 10° W 18:50:09 24° NW 18:51:11 20° N visible
28 Nov -3.1 17:54:32 10° WSW 17:57:43 48° NW 18:00:54 10° NE visible
29 Nov -1.1 18:40:53 10° NW 18:42:08 12° NNW 18:43:24 10° N visible
30 Nov -1.6 17:47:03 10° W 17:49:33 20° NW 17:52:01 10° NNE visible
